This demonstration page uses our WeatherBlox Daily Observations layout. Learn more.

Left ArrowRight Arrow

Hourly Observations for June 11, 2021

Temp ( °F °C ) Dew Point ( °F °C ) Humidity (%) Winds ( mph kmh ) Pressure ( in mb ) Visibility ( mi km ) Precip ( " mm )
12:53 am 00:53 Cloudy with Light Rain 52 11.1 48 8.9 86 86 WSW 9 15 29.88 1012 10 16 0.00 0.00
1:53 am 01:53 Cloudy with Light Rain 52 11.1 48 8.9 86 86 WSW 13 20 29.91 1013 10 16 0.00 0.00
2:53 am 02:53 Mostly Cloudy with Light Rain 51 10.6 48 8.9 89 89 SW 15 24 29.92 1013 10 16 0.00 0.00
3:53 am 03:53 Cloudy with Light Rain 51 10.6 47 8.3 86 86 SW 16 26 29.95 1014 10 16 0.00 0.00
4:53 am 04:53 Clear with Light Rain 49 9.4 43 6.1 80 80 SW 23 37 29.95 1014 10 16 0.00 0.00
5:53 am 05:53 Sunny with Light Rain 48 8.9 41 5 77 77 SW 23 37 29.96 1015 10 16 0.00 0.00
6:53 am 06:53 Sunny 48 8.9 41 5 77 77 WSW 20 31 29.95 1014 10 16 0.00 0.00
7:53 am 07:53 Sunny 51 10.6 41 5 69 69 SW 21 33 29.94 1014 10 16 N/A
8:53 am 08:53 Sunny 56 13.3 42 5.6 60 60 SW 21 33 29.94 1014 10 16 N/A
9:53 am 09:53 Sunny 62 16.7 38 3.3 41 41 W 24 39 29.93 1014 10 16 N/A
10:53 am 10:53 Sunny 66 18.9 35 1.7 32 32 W 22 35 29.93 1014 10 16 N/A
11:53 am 11:53 Sunny 70 21.1 34 1.1 27 27 W 18 30 29.91 1013 10 16 N/A
12:53 pm 12:53 Partly Cloudy 71 21.7 30 -1.1 22 22 W 16 26 29.90 1013 10 16 N/A
1:53 pm 13:53 Mostly Sunny 71 21.7 29 -1.7 21 21 W 20 31 29.90 1012 10 16 N/A
2:53 pm 14:53 Sunny 73 22.8 24 -4.4 16 16 W 17 28 29.89 1012 10 16 N/A
3:53 pm 15:53 Sunny 69 20.6 24 -4.4 18 18 W 13 20 29.90 1013 10 16 N/A
4:53 pm 16:53 Sunny 73 22.8 27 -2.8 18 18 W 12 19 29.89 1012 10 16 N/A
5:53 pm 17:53 Mostly Sunny 74 23.3 23 -5 15 15 W 25 41 29.89 1012 10 16 N/A
6:53 pm 18:53 Sunny 72 22.2 25 -3.9 17 17 W 13 20 29.90 1013 10 16 N/A
7:53 pm 19:53 Sunny 70 21.1 27 -2.8 20 20 W 13 20 29.91 1013 10 16 N/A
8:53 pm 20:53 Sunny 61 16.1 35 1.7 38 38 WSW 8 13 29.92 1013 10 16 N/A
9:53 pm 21:53 Clear 53 11.7 35 1.7 51 51 SSW 10 17 29.93 1014 10 16 N/A
10:53 pm 22:53 Clear 51 10.6 35 1.7 54 54 N N/A 29.94 1014 10 16 N/A
11:53 pm 23:53 Clear 49 9.4 35 1.7 59 59 SW 10 17 29.95 1014 10 16 N/A

Powered by AerisWeather